TimeCDT,TemperatureF,Dew PointF,Humidity,Sea Level PressureIn,VisibilityMPH,Wind Direction,Wind SpeedMPH,Gust SpeedMPH,PrecipitationIn,Events,Conditions,WindDirDegrees,DateUTC
12:53 AM,36.0,32.0,86,30.31,10.0,Calm,Calm,-,N/A,,Clear,0,2012-10-06 05:53:00
1:53 AM,39.0,34.0,82,30.34,10.0,West,5.8,-,N/A,,Clear,280,2012-10-06 06:53:00
2:53 AM,39.9,33.1,77,30.34,10.0,West,4.6,-,N/A,,Clear,280,2012-10-06 07:53:00
3:53 AM,39.9,33.1,77,30.32,10.0,WNW,3.5,-,N/A,,Clear,300,2012-10-06 08:53:00
4:53 AM,39.9,32.0,73,30.32,10.0,West,3.5,-,N/A,,Clear,280,2012-10-06 09:53:00
5:53 AM,39.0,32.0,76,30.32,10.0,Calm,Calm,-,N/A,,Clear,0,2012-10-06 10:53:00
6:53 AM,39.9,28.9,65,30.34,10.0,North,6.9,-,N/A,,Clear,350,2012-10-06 11:53:00
7:53 AM,41.0,28.9,62,30.35,10.0,North,6.9,-,N/A,,Clear,350,2012-10-06 12:53:00
8:53 AM,42.1,28.0,58,30.38,10.0,North,6.9,-,N/A,,Clear,350,2012-10-06 13:53:00
9:53 AM,43.0,26.1,51,30.39,10.0,North,6.9,-,N/A,,Overcast,350,2012-10-06 14:53:00
10:53 AM,44.1,25.0,47,30.40,10.0,NNW,6.9,-,N/A,,Overcast,340,2012-10-06 15:53:00
11:53 AM,45.0,24.1,44,30.40,10.0,NNW,11.5,-,N/A,,Mostly Cloudy,340,2012-10-06 16:53:00
12:53 PM,46.0,24.1,42,30.39,10.0,NNW,6.9,-,N/A,,Scattered Clouds,330,2012-10-06 17:53:00
1:53 PM,46.0,23.0,40,30.36,10.0,NNW,8.1,-,N/A,,Overcast,340,2012-10-06 18:53:00
2:53 PM,46.9,23.0,39,30.34,10.0,NNW,5.8,-,N/A,,Overcast,330,2012-10-06 19:53:00
3:53 PM,48.0,23.0,37,30.33,10.0,NW,9.2,-,N/A,,Mostly Cloudy,320,2012-10-06 20:53:00
4:53 PM,46.9,23.0,39,30.32,10.0,NW,10.4,-,N/A,,Overcast,320,2012-10-06 21:53:00
5:53 PM,46.4,24.8,43,30.31,10.0,NW,6.9,-,N/A,,Overcast,320,2012-10-06 22:53:00
6:53 PM,45.0,24.1,44,30.33,10.0,NW,3.5,-,N/A,,Overcast,310,2012-10-06 23:53:00
7:53 PM,45.0,25.0,46,30.33,10.0,Calm,Calm,-,N/A,,Overcast,0,2012-10-07 00:53:00
8:53 PM,44.1,27.0,51,30.34,10.0,Calm,Calm,-,N/A,,Overcast,0,2012-10-07 01:53:00
9:53 PM,43.0,26.1,51,30.35,10.0,WNW,3.5,-,N/A,,Scattered Clouds,300,2012-10-07 02:53:00
10:53 PM,42.8,26.6,53,30.34,10.0,West,3.5,-,N/A,,Scattered Clouds,280,2012-10-07 03:53:00
11:53 PM,39.0,26.1,60,30.35,10.0,NW,5.8,-,N/A,,Clear,310,2012-10-07 04:53:00